TL TrainLive
Get the app
54789

RE BKN PASSE

Passenger

RE → BKN · 04:45 – 13:25 · 8h 40m · 384 km

Live running status
Run completed at BIKANER JN — 5 min late
100% of the run · 0 km/h

Route & timetable

45 stops
# Station Arr Dep Halt km Day PF
1 REWARI RE 04:45 04:45 0 1
2 Nangal Mundi NNU 04:52 04:53 1m 12 1
3 Dahina Zainabad DZB 05:03 05:04 1m 24 1
4 Kanina Khas KNNK 05:18 05:19 1m 34 1
5 Gurha Kemla GRKA 05:25 05:26 1m 38 1
6 Bojawas BJWS 05:32 05:33 1m 43 1
7 Mahendragarh MHRG 05:40 05:41 1m 50 1
8 Zarpur Pali ZP 05:51 05:52 1m 58 1
9 Nangal Degrota NDRT 06:00 06:01 1m 63 1
10 Nanwan NWN 06:08 06:09 1m 69 1
11 Satnali STNL 06:15 06:16 1m 74 1
12 Sohansra SAWN 06:26 06:27 1m 85 1
13 Loharu LHU 06:40 06:45 5m 91 1
14 Kushal Pura KLSP 06:52 06:53 1m 98 1
15 Parvezpur PVZ 07:00 07:01 1m 102 1
16 Rampura Beri RMB 07:11 07:12 1m 112 1
17 Gugalwa Kirtan GLKN 07:19 07:20 1m 116 1
18 Bewar Bhojan BWBN 07:25 07:26 1m 119 1
19 Harpalu HR 07:34 07:35 1m 127 1
20 Kandharan Halt KDHN 07:42 07:43 1m 131 1
21 Sadulpur Junction SDLP 08:00 08:10 10m 141 1
22 Dokwa DKWA 08:17 08:18 1m 149 1
23 Hadyal HYL 08:26 08:27 1m 157 1
24 Dudhwakhara DKX 08:39 08:40 1m 170 1
25 Sirsala SRSL 08:47 08:48 1m 175 1
26 Aslu ASLU 08:56 08:57 1m 184 1
27 Churu CUR 09:15 09:25 10m 198 1
28 Depalsar DEP 09:32 09:33 1m 206 1
29 Juharpura JOH 09:42 09:43 1m 215 1
30 Shri Makri Nath Nagar SMNN 09:48 09:49 1m 219 1
31 Molisar MIO 09:55 09:56 1m 224 1
32 Ratangarh Junction RTGH 10:15 10:25 10m 241 1
33 PAYLI PYI 10:32 10:33 1m 255 1
34 Rajaldesar RJR 10:41 10:43 2m 264 1
35 Parsneu PSV 10:57 10:59 2m 275 1
36 Sitalnagar STNR 11:15 11:16 1m 286 1
37 Biggabas Ramsara BGRM 11:21 11:22 1m 291 1
38 Bigga BIGA 11:29 11:30 1m 297 1
39 Sri Dungargarh SDGH 11:48 11:49 1m 311 1
40 Banisar BS 12:01 12:02 1m 322 1
41 Sudsar SDF 12:13 12:14 1m 335 1
42 Belasar BLSR 12:26 12:27 1m 348 1
43 Napasar NPS 12:36 12:37 1m 357 1
44 Gadhwala GDW 12:48 12:49 1m 368 1
45 BIKANER JN BKN 13:25 13:25 384 1

Service details

Type
Passenger
Distance
384 km
Duration
8h 40m
Avg speed
44 km/h
Pantry car
Not published
Classes
Not published
Runs on
Not published

Coach position

Order from the engine.

SLR
Luggage / Guard
ENG
Locomotive
SLR
Luggage / Guard

Rake composition can change at short notice. Confirm on the station display board.